Probability
0 2 5 5 4 3 3 3 3 4 6 8 7 5 4 4 3 2 2 2 1 0 0 0 0 1 0 0 1 1 1 2 2 1 0 0 0 0 0 0 0 0 0
0 2 5 6 6 5 5 4 4 5 6 7 6 4 4 4 3 2 1 1 0 0 0 0 0 1 0 0 0 1 2 3 3 2 1 0 0 0 0 0 0 0 0
0 1 3 6 9 10 8 7 7 6 6 5 4 3 3 3 3 1 1 0 0 0 0 0 0 0 0 0 0 1 2 3 3 2 1 0 0 1 1 1 0 0 0
1 1 2 6 10 11 9 8 8 7 6 4 3 3 2 2 1 1 1 1 1 0 0 0 0 0 0 0 0 1 2 3 3 2 1 0 1 2 2 1 0 0 0
2 2 4 6 8 8 7 6 6 6 4 2 2 3 2 1 1 2 3 3 2 1 1 0 0 0 0 0 0 1 2 3 3 2 1 0 1 2 1 0 0 0 0
3 3 4 7 7 5 4 4 4 3 2 1 2 2 2 2 2 4 4 3 3 2 2 1 0 0 0 1 1 2 3 3 3 1 0 0 2 2 1 0 0 0 0
3 3 4 5 5 4 4 4 3 2 1 1 2 2 2 3 3 3 3 2 2 2 3 2 1 0 0 1 2 3 3 3 2 1 0 0 1 2 2 1 0 0 0
3 2 2 3 2 3 4 4 3 1 0 1 2 3 3 3 2 1 1 1 1 1 2 2 1 0 0 1 2 3 3 3 2 1 0 0 1 2 2 1 0 0 0
2 2 2 2 2 2 3 3 2 1 0 0 1 2 3 2 1 0 0 1 1 1 1 2 1 0 0 1 3 3 3 3 1 0 0 0 1 1 1 1 0 0 0
2 1 1 2 1 1 1 2 1 0 0 0 0 1 1 1 1 0 0 1 2 1 0 1 1 0 1 2 3 3 3 2 1 0 0 0 0 0 1 1 0 0 1
3 1 0 1 1 0 0 0 0 0 0 0 0 0 0 1 2 1 0 1 2 2 0 0 0 0 1 1 2 2 2 1 0 0 0 1 1 1 1 0 0 1 2
3 1 0 0 0 0 0 0 0 0 0 0 0 0 0 1 2 1 1 1 1 1 0 0 0 0 0 0 1 1 1 0 0 0 1 2 2 2 1 1 0 1 3
1 0 0 0 0 0 0 0 0 0 0 0 0 1 1 1 1 1 1 0 0 0 0 0 0 0 0 0 0 0 0 0 0 0 1 2 2 1 1 2 2 3 4
0 0 0 1 1 0 0 0 0 0 0 0 1 2 3 2 1 1 1 0 0 0 0 0 0 0 0 0 0 0 0 0 0 0 1 1 1 1 3 4 5 4 4
0 0 0 1 2 1 0 0 0 0 0 0 1 2 3 2 1 0 0 0 0 0 0 0 0 0 0 0 0 0 0 0 0 0 0 0 1 3 5 7 6 5 5
0 0 0 1 1 1 0 0 0 0 0 0 0 1 1 1 1 0 0 0 0 0 0 0 0 0 0 0 0 0 0 0 0 0 0 0 1 3 6 7 7 6 6
0 0 0 0 0 0 0 0 0 0 1 1 2 2 1 0 0 0 0 0 0 0 0 0 0 0 0 0 0 0 0 0 0 0 0 0 0 2 3 5 6 6 6
0 0 0 0 1 1 1 1 2 2 2 2 3 2 1 0 0 0 0 0 0 0 0 0 0 0 0 0 0 0 0 0 0 0 0 0 0 0 1 3 4 4 4
1 1 1 1 2 2 2 3 3 3 2 1 1 1 0 0 0 0 0 0 0 0 0 0 0 0 0 0 0 0 0 0 0 0 0 0 0 0 0 1 3 4 4
2 2 2 3 3 3 3 3 3 2 1 0 0 0 0 0 0 0 0 0 0 0 0 0 0 0 0 0 0 0 0 0 0 0 0 0 0 0 0 0 1 3 3
4 3 3 3 3 3 3 3 2 1 0 0 0 0 0 0 0 0 0 0 0 0 0 0 0 0 0 0 0 0 0 0 0 0 0 0 0 1 2 1 1 2 3
5 4 3 3 3 3 3 3 2 0 0 0 0 0 0 0 0 0 0 0 0 0 0 0 0 0 0 0 0 0 0 0 0 0 0 0 0 1 2 2 2 2 3
4 5 4 3 3 3 3 3 2 0 0 0 0 0 0 0 0 0 0 0 0 0 0 0 0 0 0 0 0 0 0 0 0 0 0 0 0 1 1 1 1 2 3
2 4 5 4 3 2 2 2 1 0 0 0 0 0 0 0 0 0 0 0 0 0 0 0 0 0 0 1 1 1 0 0 0 0 0 0 0 0 0 0 0 1 2
3 4 5 4 2 1 1 1 0 0 0 0 0 0 0 0 0 0 0 0 0 0 0 0 0 0 1 2 2 2 1 0 0 0 0 0 0 0 0 0 0 0 1
5 4 4 3 1 0 0 0 0 0 0 0 0 0 0 0 0 0 0 0 0 0 0 0 0 0 1 2 3 3 2 1 0 0 0 0 0 0 0 0 0 0 0
Wind_Speed
1 3 9 9 12 13 13 14 15 16 16 17 17 18 18 19 18 18 17 17 17 16 16 16 15 15 14 14 14 14 14 14 13 14 14 13 13 13 13 13 13 10 14
3 5 10 10 11 13 13 14 15 15 16 16 17 18 18 18 18 18 17 17 16 16 16 15 15 14 14 13 13 14 13 13 13 13 13 12 12 12 12 12 12 9 13
5 5 8 11 11 12 13 14 15 15 15 16 16 17 17 18 18 17 17 16 16 16 16 15 14 13 13 13 13 13 13 12 12 13 12 7 8 11 12 12 12 13 13
5 5 7 11 11 12 13 14 15 15 15 15 16 16 17 17 17 17 16 16 16 16 15 14 14 13 13 13 12 12 12 12 11 11 6 6 6 10 11 11 11 12 12
4 4 7 12 12 13 13 14 14 15 15 15 15 16 16 16 16 16 16 15 16 15 15 14 13 13 12 12 11 11 11 10 10 8 5 5 4 9 11 11 11 11 11
4 4 6 11 12 13 13 14 14 14 14 14 15 15 15 16 16 16 15 15 15 15 14 13 12 11 11 11 10 10 10 10 8 5 5 4 4 9 10 10 11 11 11
4 4 5 10 12 13 13 14 14 14 14 14 14 14 14 15 15 15 15 15 14 14 13 12 11 10 10 10 10 9 9 9 6 5 4 4 4 8 10 10 10 10 10
4 3 4 9 11 12 12 13 13 13 13 13 13 14 14 14 14 14 14 14 14 13 12 11 10 9 8 9 8 8 8 7 6 5 4 4 6 8 9 10 9 9 9
4 4 3 4 7 10 11 12 12 13 13 13 13 13 13 14 13 13 13 13 13 12 11 10 9 8 7 7 7 7 6 7 5 4 5 3 6 8 9 9 9 9 9
4 4 4 3 3 4 6 10 11 12 12 12 12 12 12 12 12 12 11 11 12 11 10 8 7 7 7 6 6 5 5 5 4 4 3 4 8 8 9 9 9 9 9
3 3 3 3 3 3 4 7 8 10 10 10 9 11 9 4 5 6 8 10 11 10 9 7 6 5 5 5 5 4 3 2 3 3 3 6 8 8 9 9 9 9 8
3 2 2 3 3 3 3 3 2 3 4 4 3 4 3 3 3 5 6 9 10 9 8 6 5 4 3 2 2 3 1 2 2 2 3 7 8 8 9 9 9 9 8
3 3 2 2 3 3 2 3 2 2 2 3 4 4 4 3 3 3 2 3 4 5 3 3 3 2 2 2 1 1 1 1 2 2 4 7 7 8 9 9 9 9 9
3 3 2 3 3 3 3 2 2 2 2 2 3 4 4 3 2 2 2 2 2 2 2 2 2 2 2 1 1 0 0 1 1 1 3 6 7 8 9 9 9 9 9
4 3 3 3 3 3 3 2 3 2 2 3 3 3 4 3 3 2 2 2 2 2 2 2 2 2 1 1 1 1 1 1 1 2 2 6 7 8 8 9 9 9 9
4 3 2 3 3 3 3 2 2 2 2 3 3 3 4 3 3 3 3 2 2 2 2 2 2 2 1 0 1 1 1 2 1 2 2 3 6 7 7 8 9 9 9
4 3 3 3 3 3 3 3 2 3 3 3 3 4 4 4 4 3 3 2 2 2 2 2 2 1 1 1 1 1 2 2 2 2 2 2 3 6 7 8 9 9 10
4 4 3 3 4 3 3 3 2 2 3 3 3 3 4 4 4 3 3 2 2 2 2 2 2 1 1 1 1 1 1 1 2 2 2 2 2 3 5 8 8 8 9
4 4 4 2 3 3 3 2 2 2 2 2 3 3 3 4 5 4 3 2 3 2 2 3 2 2 1 1 1 1 1 1 1 1 2 2 2 3 3 5 7 7 8
4 4 4 3 3 2 2 2 1 1 1 2 2 3 4 4 5 4 3 3 3 3 2 2 2 2 2 1 1 1 1 1 1 1 2 2 2 3 3 3 3 4 7
4 4 4 3 3 3 2 2 1 1 1 1 2 3 4 5 5 4 3 3 3 3 3 3 3 2 1 1 1 1 2 1 1 1 1 1 2 3 3 3 3 3 3
5 5 5 4 4 3 3 2 1 1 1 1 2 2 4 5 5 5 4 4 4 3 3 3 3 2 1 2 2 1 1 2 2 2 1 2 2 2 2 3 4 4 4
7 7 6 5 4 4 3 2 2 1 1 0 1 1 3 4 5 4 5 4 4 4 4 4 4 4 2 2 2 2 1 2 2 2 2 2 2 2 2 3 4 5 5
8 7 6 5 5 4 4 4 4 3 2 2 1 2 2 3 4 4 5 5 5 4 4 5 4 4 4 3 2 2 2 2 1 2 2 2 2 3 3 3 4 4 5
8 7 6 5 4 4 5 5 4 3 3 1 1 2 2 2 3 4 4 4 4 4 5 5 4 4 4 4 3 2 2 1 2 2 3 2 2 3 3 4 4 4 4
6 6 6 5 5 4 5 5 5 5 4 3 2 2 2 2 2 3 4 4 4 4 4 5 5 5 5 4 3 3 3 3 3 3 3 3 3 3 3 3 4 4 3
Wind_Direction
194 155 148 137 133 136 137 136 136 136 135 135 135 136 136 136 136 135 134 133 132 132 131 129 129 128 127 126 125 123 123 123 124 125 126 122 120 119 118 117 117 116 118
141 144 146 139 135 136 135 136 136 135 135 135 136 137 138 138 137 136 134 134 133 132 130 129 129 127 126 126 125 124 123 124 126 128 127 124 123 123 123 122 123 124 122
134 143 148 142 138 136 134 134 135 134 134 135 138 139 139 139 139 137 136 135 134 133 130 129 128 128 127 126 126 126 126 128 128 127 121 113 121 128 130 128 128 126 125
140 142 147 146 141 139 137 136 135 135 135 136 138 139 140 140 141 140 140 138 136 134 131 130 129 129 128 128 129 130 130 130 130 126 117 119 126 134 133 132 130 128 128
129 141 152 150 146 144 142 140 138 137 137 138 139 140 141 142 144 144 143 141 139 136 133 132 131 129 130 132 133 134 135 135 132 122 119 122 125 139 137 137 137 134 133
125 136 151 150 149 148 145 143 142 141 141 141 140 140 142 143 144 146 145 144 141 138 136 134 132 130 131 135 136 137 136 134 123 120 122 126 133 145 145 144 143 140 139
125 135 150 152 151 151 148 145 144 144 145 144 144 144 144 145 147 149 148 146 142 140 138 135 133 132 133 138 139 140 139 137 129 131 132 134 147 152 152 150 147 145 144
120 132 144 152 151 149 148 148 148 148 149 149 149 148 148 149 150 151 150 148 145 142 139 137 135 135 134 136 138 139 142 145 139 144 147 153 161 160 158 157 154 153 154
91 108 119 136 142 142 148 152 151 152 152 150 148 149 151 153 154 155 153 151 149 146 143 140 136 133 134 136 137 140 146 151 139 151 162 163 169 169 167 165 163 162 164
74 84 102 104 114 129 143 152 152 152 153 151 151 151 153 154 155 156 154 156 152 149 146 144 135 130 136 138 139 143 150 146 147 162 165 174 179 179 177 175 173 174 175
84 71 87 100 108 121 134 150 151 152 154 154 155 156 150 139 141 151 156 161 157 154 151 147 136 128 134 138 136 135 126 133 157 168 172 182 185 187 186 185 185 185 185
125 103 92 103 106 112 135 125 122 127 129 127 123 135 123 118 132 142 155 162 159 160 157 151 144 133 109 111 130 125 121 165 172 185 187 189 191 193 192 191 192 193 194
139 128 108 108 106 112 117 117 107 107 108 113 122 126 124 118 121 120 123 153 152 151 134 134 124 104 96 88 84 103 164 189 183 199 197 195 197 199 199 197 197 199 200
132 146 126 116 116 119 120 122 120 123 128 132 134 134 133 133 133 128 123 120 120 125 126 118 109 103 100 104 115 120 234 224 194 194 206 203 202 206 208 206 204 206 209
159 161 145 137 138 130 127 140 138 144 148 148 142 144 146 147 150 144 133 130 133 130 133 128 121 119 121 127 191 207 239 258 220 202 211 213 209 211 215 216 216 216 217
175 174 160 148 149 135 136 146 150 154 154 149 156 162 159 157 156 151 150 152 155 150 149 149 153 147 146 173 236 248 246 241 223 213 220 224 217 214 219 224 227 228 229
180 173 172 165 148 145 149 161 158 155 155 160 164 163 162 161 161 160 159 166 170 153 147 145 145 134 161 191 228 245 244 240 232 221 222 229 224 219 220 226 231 233 235
169 170 181 177 154 155 152 151 149 150 156 166 164 162 167 167 164 160 168 178 168 152 148 155 161 150 173 195 222 257 257 253 251 235 222 219 221 223 223 229 236 241 240
175 172 176 172 162 164 156 143 141 142 159 166 163 168 172 171 166 165 178 181 165 159 163 175 162 162 175 202 239 254 259 259 256 248 235 224 220 222 225 235 241 245 245
175 173 175 166 158 147 134 118 109 125 165 167 175 180 173 172 170 167 178 180 167 164 175 174 164 161 173 186 245 296 301 285 267 244 242 237 231 232 233 236 243 256 255
178 179 179 170 164 146 143 153 159 182 180 190 198 190 180 178 175 175 184 177 173 179 185 174 156 160 165 145 106 345 334 311 283 258 245 245 249 244 239 234 235 240 254
191 194 185 182 173 169 172 168 164 154 174 192 202 193 184 181 181 185 183 187 182 174 175 175 162 161 179 158 144 96 347 331 311 279 259 242 254 247 240 239 238 239 245
195 199 196 189 182 178 167 138 115 84 58 85 175 199 192 186 189 192 191 188 183 180 190 192 183 179 185 185 173 157 165 245 298 299 276 258 263 254 251 248 243 242 239
202 196 188 183 180 175 166 163 166 176 195 214 199 195 191 184 189 192 195 193 191 189 194 200 192 184 176 193 194 194 196 183 208 293 292 268 267 264 262 262 259 250 240
193 189 183 177 182 177 173 178 178 190 201 196 180 181 194 199 198 196 194 195 196 196 198 201 194 192 192 196 192 186 197 206 208 221 274 289 287 264 257 256 257 257 249
184 183 177 174 187 181 178 182 187 193 193 189 204 204 208 209 211 208 199 196 198 200 201 204 203 201 203 205 204 196 192 198 206 208 240 266 280 278 267 255 253 255 252